N0MR Weather Reports


time (UTC)temp
F
wind
direction
speed
knots
gust
knots
rain 1hr
in
rain 24hr
in
rain mn
in
humidity
%
barometer
mb
20260901112626 58 277 0.0 0.9 0.00 0.00 0.00 88 1010.9
20260901111627 59 300 0.0 0.0 0.00 0.00 0.00 86 1010.7
20260901110627 59 300 0.0 0.0 0.00 0.00 0.00 86 1010.7
20260901105627 59 269 0.0 1.7 0.00 0.00 0.00 85 1010.7
20260901104626 60 279 0.9 4.3 0.00 0.00 0.00 83 1010.6
20260901103626 60 279 0.9 4.3 0.00 0.00 0.00 83 1010.6
20260901102626 60 259 0.0 1.7 0.00 0.00 0.00 82 1010.5
20260901101627 60 259 0.0 1.7 0.00 0.00 0.00 82 1010.5
20260901100626 61 284 0.0 0.9 0.00 0.00 0.00 81 1010.5
20260901094628 62 277 0.0 0.9 0.00 0.00 0.00 80 1010.4
20260901093627 62 277 0.0 0.9 0.00 0.00 0.00 80 1010.4
20260901092627 63 281 0.0 1.7 0.00 0.00 0.00 78 1010.3
20260901091627 63 281 0.0 1.7 0.00 0.00 0.00 78 1010.3
20260901090627 63 219 0.0 3.5 0.00 0.00 0.00 77 1010.4
20260901085627 63 219 0.0 3.5 0.00 0.00 0.00 77 1010.4
20260901084627 64 271 0.0 6.1 0.00 0.00 0.00 79 1010.6
20260901083631 64 271 0.0 6.1 0.00 0.00 0.00 79 1010.6
20260901082627 65 267 0.0 5.2 0.00 0.00 0.00 78 1010.7
20260901081629 65 267 0.0 5.2 0.00 0.00 0.00 78 1010.7
20260901071637 62 284 0.0 0.0 0.00 0.00 0.00 87 1010.9
20260901070628 62 284 0.0 0.0 0.00 0.00 0.00 87 1010.9
20260901065630 62 284 0.0 0.9 0.00 0.00 0.00 88 1011.0
20260901064630 62 284 0.0 0.9 0.00 0.00 0.00 88 1011.0
20260901055629 62 57 0.0 0.9 0.00 0.00 0.00 88 1010.8
20260901054628 62 57 0.0 0.9 0.00 0.00 0.00 88 1010.8
20260901040629 63 247 0.0 0.0 0.00 0.00 0.00 87 1010.7
20260901035628 63 247 0.0 0.0 0.00 0.00 0.00 87 1010.7
20260901034630 62 256 0.0 0.0 0.00 0.00 0.00 88 1010.7
20260901033629 62 256 0.0 0.0 0.00 0.00 0.00 88 1010.7
20260901032630 62 256 0.0 0.0 0.00 0.00 0.00 89 1010.7
20260901031628 62 256 0.0 0.0 0.00 0.00 0.00 89 1010.7
20260901030629 61 256 0.0 0.0 0.00 0.00 0.00 91 1010.7
20260901025630 61 256 0.0 0.0 0.00 0.00 0.00 91 1010.7
20260901022630 61 256 0.0 0.0 0.00 0.00 0.00 92 1010.6
20260901021630 61 256 0.0 0.0 0.00 0.00 0.00 92 1010.6
20260901001531 73 257 0.0 0.0 0.00 0.00 0.00 71 1009.5
20260901000530 73 257 0.0 0.0 0.00 0.00 0.00 71 1009.5
20260831235530 75 257 0.0 0.9 0.00 0.00 0.00 68 1009.6
20260831234531 75 257 0.0 0.9 0.00 0.00 0.00 68 1009.6
20260831231540 78 300 0.0 0.9 0.00 0.00 0.00 57 1009.4
20260831230531 78 300 0.0 0.9 0.00 0.00 0.00 57 1009.4
20260831225530 79 163 0.0 1.7 0.00 0.00 0.00 58 1009.1
20260831224530 79 163 0.0 1.7 0.00 0.00 0.00 58 1009.1
20260831223530 80 252 0.0 5.2 0.00 0.00 0.00 57 1009.2
20260831222530 80 194 3.5 5.2 0.00 0.00 0.00 57 1009.2
20260831221531 80 194 3.5 5.2 0.00 0.00 0.00 57 1009.2
20260831220531 81 201 0.0 6.1 0.00 0.00 0.00 59 1009.4
20260831215530 81 201 0.0 6.1 0.00 0.00 0.00 59 1009.4
20260831214532 81 211 1.7 6.1 0.00 0.00 0.00 61 1009.4
20260831213532 81 211 1.7 6.1 0.00 0.00 0.00 61 1009.4
20260831212532 81 217 0.0 7.8 0.00 0.00 0.00 63 1009.4
20260831211532 81 217 0.0 7.8 0.00 0.00 0.00 63 1009.4
20260831210531 80 201 5.2 7.0 0.00 0.00 0.00 62 1009.4
20260831205532 80 201 5.2 7.0 0.00 0.00 0.00 62 1009.4
20260831204531 80 208 1.7 5.2 0.00 0.00 0.00 70 1009.2
20260831202532 79 342 0.9 8.7 0.00 0.00 0.00 70 1009.2
20260831201531 79 342 0.9 8.7 0.00 0.00 0.00 70 1009.2
20260831200532 78 211 0.0 3.5 0.00 0.00 0.00 73 1009.2
20260831194532 77 296 0.0 6.1 0.00 0.00 0.00 84 1009.1
20260831193532 77 296 0.0 6.1 0.00 0.00 0.00 84 1009.1
20260831192532 74 235 0.0 5.2 0.00 0.00 0.00 87 1009.3
20260831191532 73 344 4.3 3.5 0.00 0.00 0.00 91 1009.4
20260831190533 73 344 4.3 3.5 0.00 0.00 0.00 91 1009.4
20260831185533 72 308 0.0 3.5 0.00 0.00 0.00 92 1009.2
20260831184533 72 308 0.0 3.5 0.00 0.00 0.00 92 1009.2
20260831183532 72 5 0.0 3.5 0.00 0.00 0.00 96 1009.1
20260831182533 72 5 0.0 3.5 0.00 0.00 0.00 96 1009.1
20260831181533 70 293 0.0 5.2 0.00 0.00 0.00 97 1009.3
20260831180532 70 293 0.0 5.2 0.00 0.00 0.00 97 1009.3
20260831175532 70 221 5.2 2.6 0.00 0.00 0.00 97 1009.3
20260831174532 70 221 5.2 2.6 0.00 0.00 0.00 97 1009.3
20260831173533 70 226 0.0 1.7 0.00 0.00 0.00 98 1009.2
20260831172533 70 226 0.0 1.7 0.00 0.00 0.00 98 1009.2
20260831171532 70 246 0.0 5.2 0.00 0.00 0.00 97 1009.3
20260831170533 70 246 0.0 5.2 0.00 0.00 0.00 97 1009.3
20260831165533 69 202 1.7 4.3 0.00 0.00 0.00 98 1009.3
20260831164534 69 202 1.7 4.3 0.00 0.00 0.00 98 1009.3
20260831163532 69 225 1.7 1.7 0.00 0.00 0.00 98 1009.1
20260831162532 69 225 1.7 1.7 0.00 0.00 0.00 98 1009.1
20260831161533 68 219 0.0 3.5 0.00 0.00 0.00 97 1009.2
20260831160533 68 240 0.0 0.0 0.00 0.00 0.00 98 1009.1
20260831155533 68 240 0.0 0.0 0.00 0.00 0.00 98 1009.1
20260831154534 68 240 0.0 1.7 0.00 0.00 0.00 98 1009.0
20260831153534 68 240 0.0 1.7 0.00 0.00 0.00 98 1009.0
20260831152533 68 240 0.0 0.9 0.00 0.00 0.00 98 1008.8
20260831151533 68 240 0.0 0.9 0.00 0.00 0.00 98 1008.8
20260831150533 68 240 0.0 4.3 0.00 0.00 0.00 98 1008.4
20260831145534 68 240 0.0 4.3 0.00 0.00 0.00 98 1008.4
20260831144533 67 240 0.0 0.9 0.00 0.00 0.00 98 1008.3
20260831143534 67 240 0.0 0.9 0.00 0.00 0.00 98 1008.3
20260831142533 66 240 0.0 0.0 0.00 0.00 0.00 98 1008.0
20260831141534 66 240 0.0 0.0 0.00 0.00 0.00 98 1008.0
20260831140534 66 240 0.0 0.0 0.00 0.00 0.00 98 1008.1
20260831135542 66 240 0.0 0.0 0.00 0.00 0.00 98 1008.1
20260831134534 65 240 0.0 0.0 0.00 0.00 0.00 98 1008.0
20260831133534 65 240 0.0 0.0 0.00 0.00 0.00 98 1008.0
20260831132534 65 240 0.0 0.0 0.00 0.00 0.00 97 1008.0
20260831131534 65 240 0.0 0.0 0.00 0.00 0.00 97 1008.0
20260831130535 65 240 0.0 0.0 0.00 0.00 0.00 97 1008.0
20260831125535 64 240 0.0 0.0 0.00 0.00 0.00 98 1008.1
20260831124535 64 240 0.0 0.0 0.00 0.00 0.00 98 1008.1
20260831123534 64 240 0.0 0.0 0.00 0.00 0.00 97 1008.4
20260831122534 64 240 0.0 0.0 0.00 0.00 0.00 97 1008.4
20260831120535 64 240 0.0 0.9 0.00 0.00 0.00 98 1008.4
20260831115535 63 241 0.0 0.0 0.00 0.00 0.00 98 1008.1
20260831114535 63 241 0.0 0.0 0.00 0.00 0.00 98 1008.1
20260831113534 63 241 0.0 0.9 0.00 0.00 0.00 97 1007.9